TimeCDT,TemperatureF,Dew PointF,Humidity,Sea Level PressureIn,VisibilityMPH,Wind Direction,Wind SpeedMPH,Gust SpeedMPH,PrecipitationIn,Events,Conditions,WindDirDegrees,DateUTC
12:15 AM,64.4,53.6,68,30.05,10.0,Calm,Calm,-,N/A,,Clear,0,2013-05-07 05:15:00
12:35 AM,64.4,53.6,68,30.05,10.0,Calm,Calm,-,N/A,,Clear,0,2013-05-07 05:35:00
12:55 AM,64.4,53.6,68,30.05,10.0,Calm,Calm,-,N/A,,Clear,0,2013-05-07 05:55:00
1:15 AM,66.2,53.6,64,30.05,10.0,Calm,Calm,-,N/A,,Clear,0,2013-05-07 06:15:00
1:35 AM,64.4,53.6,68,30.05,10.0,Calm,Calm,-,N/A,,Clear,0,2013-05-07 06:35:00
1:55 AM,66.2,51.8,60,30.05,10.0,Calm,Calm,-,N/A,,Clear,0,2013-05-07 06:55:00
2:15 AM,66.2,51.8,60,30.05,10.0,Calm,Calm,-,N/A,,Clear,0,2013-05-07 07:15:00
2:35 AM,64.4,53.6,68,30.05,10.0,Calm,Calm,-,N/A,,Clear,0,2013-05-07 07:35:00
2:55 AM,62.6,53.6,72,30.05,10.0,Calm,Calm,-,N/A,,Clear,0,2013-05-07 07:55:00
3:15 AM,60.8,53.6,77,30.05,10.0,Calm,Calm,-,N/A,,Clear,0,2013-05-07 08:15:00
3:35 AM,62.6,53.6,72,30.05,10.0,SSE,3.5,-,N/A,,Clear,160,2013-05-07 08:35:00
3:55 AM,60.8,53.6,77,30.06,10.0,Calm,Calm,-,N/A,,Clear,0,2013-05-07 08:55:00
4:15 AM,60.8,55.4,82,30.06,10.0,Calm,Calm,-,N/A,,Clear,0,2013-05-07 09:15:00
4:35 AM,60.8,53.6,77,30.06,10.0,Calm,Calm,-,N/A,,Clear,0,2013-05-07 09:35:00
4:55 AM,60.8,53.6,77,30.06,10.0,WSW,3.5,-,N/A,,Clear,250,2013-05-07 09:55:00
5:15 AM,62.6,51.8,68,30.06,10.0,Calm,Calm,-,N/A,,Clear,0,2013-05-07 10:15:00
5:35 AM,57.2,51.8,82,30.06,10.0,East,3.5,-,N/A,,Clear,90,2013-05-07 10:35:00
6:15 AM,59.0,53.6,82,30.07,10.0,Calm,Calm,-,N/A,,Clear,0,2013-05-07 11:15:00
6:35 AM,57.2,53.6,88,30.07,10.0,Calm,Calm,-,N/A,,Clear,0,2013-05-07 11:35:00
6:50 AM,59.0,53.6,82,30.07,10.0,Calm,Calm,-,N/A,,Clear,0,2013-05-07 11:50:00
6:55 AM,57.2,53.6,88,30.07,10.0,Calm,Calm,-,N/A,,Clear,0,2013-05-07 11:55:00
7:50 AM,60.8,55.4,82,30.09,10.0,Calm,Calm,-,N/A,,Clear,0,2013-05-07 12:50:00
8:50 AM,60.8,55.4,82,30.09,10.0,Calm,Calm,-,N/A,,Clear,0,2013-05-07 13:50:00
9:50 AM,71.6,51.8,50,30.09,10.0,South,9.2,-,N/A,,Clear,170,2013-05-07 14:50:00
11:50 AM,75.2,48.2,38,30.09,10.0,Calm,Calm,-,N/A,,Clear,0,2013-05-07 16:50:00
12:50 PM,78.8,48.2,34,30.07,10.0,Calm,Calm,-,N/A,,Clear,0,2013-05-07 17:50:00
1:59 PM,80.6,48.2,32,30.04,10.0,SSE,4.6,-,N/A,,Clear,150,2013-05-07 18:59:00
2:51 PM,82.4,48.2,30,30.03,10.0,South,6.9,-,N/A,,Clear,190,2013-05-07 19:51:00
3:52 PM,82.4,48.2,30,30.00,10.0,Calm,Calm,-,N/A,,Clear,0,2013-05-07 20:52:00
4:51 PM,82.4,48.2,30,29.98,10.0,SSE,8.1,-,N/A,,Clear,150,2013-05-07 21:51:00
5:59 PM,82.4,48.2,30,29.96,10.0,SE,9.2,-,N/A,,Clear,130,2013-05-07 22:59:00
6:50 PM,82.4,48.2,30,29.95,10.0,SE,8.1,-,N/A,,Clear,140,2013-05-07 23:50:00
7:59 PM,78.8,50.0,36,29.96,10.0,ESE,6.9,-,N/A,,Clear,120,2013-05-08 00:59:00
8:49 PM,75.2,51.8,44,29.96,10.0,ESE,6.9,-,N/A,,Clear,110,2013-05-08 01:49:00
9:15 PM,73.4,50.0,44,29.97,10.0,ESE,6.9,-,N/A,,Clear,120,2013-05-08 02:15:00
9:35 PM,73.4,50.0,44,29.97,10.0,ESE,8.1,-,N/A,,Clear,120,2013-05-08 02:35:00
9:55 PM,73.4,50.0,44,29.97,10.0,ESE,5.8,-,N/A,,Clear,120,2013-05-08 02:55:00
10:15 PM,71.6,50.0,46,29.98,10.0,ESE,6.9,-,N/A,,Clear,120,2013-05-08 03:15:00
10:35 PM,71.6,50.0,46,29.99,10.0,SE,5.8,-,N/A,,Clear,130,2013-05-08 03:35:00
10:55 PM,69.8,50.0,49,29.99,10.0,ESE,5.8,-,N/A,,Clear,120,2013-05-08 03:55:00
11:15 PM,69.8,50.0,49,29.99,10.0,SE,4.6,-,N/A,,Clear,130,2013-05-08 04:15:00
11:35 PM,69.8,48.2,46,29.99,10.0,ESE,4.6,-,N/A,,Clear,120,2013-05-08 04:35:00
11:55 PM,69.8,48.2,46,29.99,10.0,SE,4.6,-,N/A,,Clear,130,2013-05-08 04:55:00